Precipitable_Water
2.12 2.09 2.17 2.19 2.15 2.07 1.85 1.82 1.83 1.81 1.79 1.76 1.72 1.69 1.64 1.57 1.52 1.54 1.56 1.57 1.54 1.53 1.56 1.58 1.59 1.61 1.61 1.60 1.61 1.62 1.66 1.72 1.73 1.70 1.68 1.65 1.65 1.66 1.69 1.69 1.67 1.65 1.62 1.61 1.63 1.66 1.67 1.67 1.65 1.56 1.47 1.43 1.43 1.49 1.59 1.67 1.70 1.72 1.77 1.79 1.79 1.80 1.81 1.81 1.75 1.70 1.65 1.62 1.55 1.55 1.58 1.61 1.63 1.63 1.63 1.65 1.67 1.69 1.67 1.63 1.64 1.67 1.72 1.78 1.79
2.08 2.19 2.19 2.15 2.13 1.99 1.82 1.81 1.80 1.79 1.78 1.73 1.67 1.61 1.56 1.55 1.58 1.59 1.59 1.56 1.52 1.53 1.56 1.58 1.62 1.64 1.64 1.64 1.65 1.70 1.74 1.74 1.74 1.72 1.71 1.71 1.70 1.69 1.67 1.65 1.64 1.61 1.59 1.60 1.64 1.68 1.73 1.74 1.69 1.59 1.47 1.45 1.47 1.52 1.58 1.68 1.75 1.77 1.82 1.85 1.81 1.80 1.79 1.77 1.79 1.72 1.67 1.63 1.59 1.58 1.58 1.61 1.61 1.62 1.63 1.65 1.65 1.66 1.64 1.62 1.64 1.68 1.76 1.83 1.82
2.21 2.21 2.19 2.13 2.10 1.89 1.80 1.80 1.80 1.78 1.76 1.68 1.57 1.55 1.57 1.59 1.58 1.60 1.59 1.57 1.55 1.56 1.57 1.58 1.61 1.63 1.64 1.65 1.67 1.69 1.72 1.74 1.73 1.74 1.73 1.70 1.66 1.65 1.65 1.64 1.62 1.62 1.62 1.64 1.68 1.74 1.79 1.80 1.76 1.62 1.49 1.46 1.51 1.57 1.62 1.68 1.75 1.78 1.79 1.82 1.83 1.83 1.85 1.82 1.76 1.73 1.71 1.65 1.62 1.61 1.60 1.59 1.63 1.70 1.72 1.72 1.69 1.66 1.65 1.66 1.67 1.73 1.80 1.86 1.82
2.08 2.14 2.19 2.14 1.98 1.82 1.77 1.79 1.79 1.76 1.68 1.56 1.53 1.57 1.58 1.57 1.58 1.58 1.56 1.56 1.55 1.56 1.57 1.58 1.60 1.61 1.61 1.63 1.67 1.70 1.73 1.75 1.72 1.70 1.71 1.69 1.68 1.69 1.71 1.71 1.70 1.70 1.71 1.73 1.75 1.78 1.80 1.81 1.80 1.69 1.55 1.46 1.50 1.59 1.66 1.72 1.75 1.78 1.80 1.84 1.90 1.92 1.83 1.75 1.72 1.70 1.67 1.63 1.58 1.56 1.58 1.60 1.62 1.68 1.75 1.79 1.74 1.70 1.65 1.68 1.73 1.77 1.83 1.79 1.80
2.03 2.05 2.06 2.02 1.89 1.79 1.76 1.76 1.74 1.70 1.60 1.53 1.56 1.58 1.57 1.57 1.56 1.55 1.53 1.53 1.56 1.57 1.58 1.61 1.65 1.69 1.69 1.70 1.74 1.76 1.78 1.80 1.78 1.77 1.76 1.74 1.72 1.72 1.73 1.74 1.75 1.75 1.75 1.75 1.74 1.74 1.76 1.79 1.80 1.74 1.61 1.49 1.48 1.58 1.67 1.73 1.76 1.80 1.83 1.84 1.84 1.82 1.80 1.80 1.78 1.73 1.65 1.58 1.53 1.53 1.55 1.57 1.60 1.64 1.69 1.76 1.78 1.72 1.67 1.67 1.77 1.81 1.80 1.83 1.82
2.01 2.02 2.04 1.98 1.89 1.80 1.75 1.74 1.72 1.64 1.55 1.55 1.57 1.55 1.54 1.56 1.56 1.55 1.53 1.54 1.58 1.60 1.62 1.64 1.68 1.71 1.72 1.73 1.76 1.78 1.81 1.82 1.84 1.84 1.81 1.80 1.80 1.77 1.76 1.77 1.77 1.76 1.76 1.74 1.71 1.70 1.74 1.77 1.78 1.75 1.66 1.51 1.47 1.57 1.67 1.72 1.78 1.81 1.81 1.82 1.83 1.85 1.86 1.89 1.88 1.82 1.73 1.64 1.58 1.54 1.54 1.57 1.60 1.64 1.66 1.73 1.79 1.80 1.71 1.73 1.78 1.85 1.88 1.87 1.82
2.02 2.05 2.04 1.99 1.88 1.82 1.78 1.75 1.66 1.58 1.51 1.54 1.53 1.53 1.55 1.56 1.56 1.55 1.55 1.58 1.59 1.60 1.62 1.64 1.66 1.68 1.71 1.75 1.79 1.82 1.81 1.84 1.84 1.82 1.85 1.82 1.84 1.82 1.80 1.79 1.78 1.78 1.77 1.77 1.75 1.73 1.75 1.79 1.81 1.80 1.74 1.58 1.48 1.54 1.65 1.72 1.74 1.76 1.78 1.81 1.83 1.85 1.86 1.88 1.92 1.85 1.75 1.67 1.64 1.63 1.56 1.50 1.51 1.56 1.62 1.68 1.73 1.80 1.79 1.83 1.85 1.92 1.90 1.88 1.87
2.02 2.06 2.00 1.90 1.85 1.81 1.77 1.69 1.59 1.49 1.50 1.51 1.51 1.53 1.54 1.54 1.53 1.55 1.58 1.57 1.57 1.58 1.59 1.61 1.63 1.64 1.66 1.70 1.74 1.77 1.81 1.84 1.85 1.83 1.82 1.82 1.81 1.83 1.81 1.82 1.82 1.81 1.80 1.80 1.80 1.79 1.79 1.80 1.82 1.84 1.83 1.72 1.54 1.51 1.61 1.71 1.75 1.75 1.78 1.83 1.84 1.84 1.86 1.88 1.89 1.85 1.76 1.68 1.66 1.65 1.63 1.54 1.46 1.46 1.51 1.57 1.68 1.76 1.84 1.88 1.95 1.93 1.97 1.89 1.87
1.90 1.94 1.91 1.87 1.83 1.79 1.74 1.60 1.47 1.46 1.49 1.48 1.50 1.51 1.51 1.52 1.53 1.55 1.56 1.54 1.54 1.54 1.56 1.58 1.59 1.61 1.63 1.66 1.70 1.74 1.77 1.79 1.79 1.81 1.81 1.81 1.82 1.82 1.81 1.80 1.80 1.80 1.81 1.80 1.81 1.81 1.80 1.79 1.79 1.82 1.84 1.80 1.66 1.54 1.62 1.73 1.81 1.83 1.82 1.83 1.85 1.87 1.89 1.90 1.89 1.85 1.76 1.70 1.69 1.66 1.65 1.63 1.55 1.50 1.50 1.55 1.72 1.84 1.89 1.93 1.91 1.93 1.93 1.91 1.91
1.89 1.93 1.88 1.83 1.82 1.77 1.69 1.50 1.43 1.48 1.47 1.47 1.48 1.49 1.49 1.51 1.54 1.55 1.53 1.52 1.52 1.53 1.55 1.54 1.55 1.57 1.60 1.63 1.68 1.72 1.76 1.78 1.77 1.76 1.77 1.77 1.77 1.78 1.80 1.81 1.78 1.77 1.77 1.77 1.76 1.76 1.75 1.76 1.77 1.79 1.81 1.83 1.77 1.67 1.65 1.76 1.84 1.84 1.85 1.86 1.87 1.88 1.91 1.90 1.88 1.85 1.77 1.72 1.69 1.68 1.70 1.70 1.71 1.63 1.52 1.54 1.62 1.77 1.90 1.86 1.89 1.90 1.92 1.90 1.89
1.85 1.84 1.83 1.82 1.78 1.76 1.60 1.43 1.43 1.47 1.45 1.46 1.48 1.48 1.50 1.54 1.56 1.54 1.52 1.51 1.53 1.55 1.56 1.56 1.56 1.57 1.58 1.64 1.69 1.72 1.74 1.74 1.74 1.74 1.76 1.77 1.78 1.80 1.80 1.79 1.77 1.77 1.76 1.75 1.74 1.74 1.74 1.75 1.76 1.76 1.78 1.80 1.80 1.78 1.77 1.78 1.85 1.88 1.85 1.85 1.87 1.88 1.89 1.88 1.87 1.85 1.79 1.73 1.70 1.71 1.69 1.71 1.74 1.73 1.69 1.58 1.59 1.69 1.84 1.93 1.89 1.87 1.85 1.91 1.85
1.78 1.82 1.81 1.81 1.83 1.73 1.51 1.39 1.42 1.43 1.44 1.46 1.47 1.49 1.53 1.57 1.56 1.53 1.53 1.53 1.55 1.56 1.57 1.57 1.58 1.59 1.62 1.66 1.70 1.71 1.73 1.75 1.76 1.77 1.78 1.78 1.77 1.76 1.78 1.77 1.76 1.75 1.73 1.71 1.69 1.70 1.71 1.74 1.75 1.74 1.75 1.77 1.78 1.81 1.85 1.89 1.90 1.86 1.82 1.79 1.81 1.84 1.85 1.87 1.87 1.86 1.82 1.77 1.68 1.64 1.63 1.67 1.73 1.83 1.78 1.69 1.64 1.69 1.80 1.91 1.89 1.87 1.90 1.89 1.83
1.73 1.74 1.77 1.78 1.73 1.62 1.44 1.35 1.40 1.43 1.45 1.47 1.49 1.52 1.56 1.58 1.56 1.55 1.55 1.55 1.56 1.56 1.56 1.56 1.58 1.60 1.64 1.67 1.69 1.71 1.73 1.74 1.74 1.74 1.73 1.73 1.74 1.75 1.74 1.73 1.72 1.71 1.71 1.70 1.69 1.67 1.67 1.68 1.69 1.70 1.70 1.71 1.73 1.78 1.86 1.92 1.93 1.92 1.87 1.83 1.80 1.82 1.84 1.85 1.86 1.84 1.78 1.73 1.68 1.64 1.61 1.64 1.73 1.82 1.81 1.82 1.71 1.62 1.66 1.75 1.83 1.82 1.82 1.79 1.77
1.66 1.67 1.72 1.73 1.66 1.53 1.38 1.34 1.41 1.45 1.47 1.49 1.52 1.55 1.59 1.58 1.57 1.56 1.55 1.55 1.55 1.56 1.56 1.57 1.58 1.60 1.63 1.67 1.71 1.74 1.76 1.75 1.74 1.74 1.74 1.74 1.74 1.73 1.71 1.67 1.62 1.61 1.62 1.63 1.63 1.63 1.65 1.67 1.69 1.69 1.68 1.67 1.69 1.75 1.84 1.90 1.93 1.98 1.97 1.92 1.86 1.82 1.78 1.78 1.82 1.80 1.73 1.70 1.68 1.64 1.60 1.63 1.65 1.70 1.79 1.80 1.79 1.68 1.57 1.56 1.66 1.72 1.73 1.73 1.72
1.60 1.63 1.64 1.64 1.60 1.45 1.33 1.35 1.44 1.46 1.48 1.51 1.53 1.58 1.59 1.59 1.59 1.58 1.57 1.58 1.58 1.59 1.59 1.59 1.61 1.63 1.65 1.68 1.71 1.71 1.71 1.72 1.72 1.72 1.72 1.72 1.69 1.67 1.63 1.59 1.57 1.59 1.60 1.60 1.60 1.62 1.65 1.66 1.68 1.70 1.71 1.70 1.68 1.71 1.81 1.86 1.89 1.96 1.97 1.96 1.93 1.88 1.81 1.77 1.78 1.75 1.68 1.65 1.63 1.62 1.60 1.61 1.61 1.66 1.67 1.69 1.77 1.79 1.73 1.60 1.55 1.60 1.65 1.65 1.65
1.63 1.61 1.62 1.58 1.52 1.40 1.34 1.40 1.44 1.47 1.49 1.51 1.54 1.57 1.58 1.59 1.60 1.60 1.60 1.61 1.62 1.62 1.61 1.62 1.63 1.66 1.68 1.68 1.70 1.69 1.68 1.66 1.66 1.67 1.66 1.65 1.63 1.60 1.59 1.60 1.62 1.63 1.62 1.59 1.57 1.59 1.63 1.65 1.64 1.64 1.64 1.63 1.61 1.62 1.68 1.75 1.86 1.91 1.94 1.93 1.93 1.94 1.89 1.83 1.79 1.71 1.63 1.57 1.55 1.55 1.58 1.61 1.62 1.63 1.61 1.58 1.60 1.67 1.72 1.74 1.69 1.62 1.62 1.65 1.64
1.60 1.62 1.57 1.51 1.44 1.37 1.32 1.42 1.45 1.47 1.49 1.52 1.55 1.55 1.55 1.56 1.59 1.61 1.62 1.63 1.64 1.64 1.64 1.64 1.64 1.65 1.66 1.69 1.70 1.69 1.67 1.66 1.65 1.65 1.65 1.63 1.59 1.59 1.60 1.59 1.58 1.57 1.57 1.55 1.51 1.49 1.51 1.55 1.55 1.52 1.51 1.50 1.50 1.52 1.58 1.71 1.80 1.84 1.89 1.91 1.92 1.93 1.93 1.89 1.82 1.74 1.64 1.56 1.52 1.51 1.54 1.58 1.60 1.60 1.58 1.54 1.56 1.61 1.68 1.74 1.79 1.76 1.68 1.63 1.63
1.58 1.58 1.51 1.46 1.39 1.32 1.31 1.41 1.47 1.49 1.50 1.54 1.56 1.54 1.55 1.55 1.56 1.59 1.60 1.61 1.63 1.65 1.67 1.67 1.67 1.67 1.68 1.69 1.67 1.67 1.67 1.66 1.64 1.64 1.63 1.59 1.57 1.56 1.54 1.51 1.50 1.53 1.55 1.55 1.51 1.44 1.40 1.40 1.43 1.45 1.47 1.51 1.57 1.60 1.68 1.74 1.76 1.79 1.81 1.84 1.87 1.89 1.89 1.89 1.86 1.80 1.69 1.60 1.54 1.55 1.56 1.58 1.58 1.58 1.55 1.49 1.45 1.47 1.54 1.62 1.72 1.77 1.78 1.72 1.69
1.57 1.54 1.51 1.41 1.34 1.27 1.27 1.40 1.45 1.47 1.51 1.53 1.54 1.54 1.54 1.54 1.53 1.54 1.55 1.54 1.55 1.61 1.70 1.73 1.72 1.72 1.73 1.72 1.71 1.67 1.63 1.59 1.58 1.58 1.56 1.53 1.50 1.49 1.47 1.47 1.49 1.53 1.58 1.60 1.60 1.55 1.48 1.42 1.39 1.40 1.44 1.50 1.57 1.63 1.68 1.67 1.72 1.74 1.76 1.78 1.81 1.84 1.87 1.87 1.85 1.83 1.75 1.65 1.60 1.57 1.57 1.57 1.58 1.58 1.54 1.49 1.45 1.41 1.38 1.42 1.50 1.63 1.74 1.74 1.72
1.54 1.52 1.45 1.38 1.31 1.21 1.24 1.37 1.43 1.47 1.49 1.50 1.50 1.53 1.54 1.52 1.50 1.48 1.48 1.48 1.49 1.55 1.65 1.72 1.74 1.74 1.72 1.69 1.66 1.64 1.60 1.54 1.48 1.48 1.47 1.46 1.44 1.43 1.44 1.46 1.50 1.56 1.61 1.63 1.66 1.68 1.65 1.60 1.55 1.51 1.49 1.51 1.57 1.64 1.67 1.65 1.75 1.80 1.78 1.77 1.77 1.79 1.79 1.82 1.85 1.83 1.77 1.71 1.68 1.63 1.59 1.56 1.55 1.56 1.55 1.52 1.48 1.42 1.37 1.36 1.36 1.42 1.54 1.66 1.70
1.50 1.48 1.41 1.34 1.29 1.18 1.22 1.34 1.40 1.45 1.47 1.47 1.48 1.50 1.52 1.48 1.46 1.45 1.44 1.43 1.44 1.48 1.54 1.64 1.70 1.70 1.68 1.66 1.63 1.60 1.56 1.50 1.42 1.40 1.39 1.38 1.38 1.41 1.43 1.46 1.52 1.58 1.63 1.66 1.70 1.74 1.75 1.71 1.67 1.62 1.61 1.61 1.62 1.65 1.70 1.68 1.72 1.76 1.78 1.82 1.81 1.73 1.71 1.73 1.77 1.79 1.74 1.70 1.72 1.69 1.63 1.59 1.56 1.56 1.54 1.52 1.47 1.39 1.36 1.36 1.32 1.32 1.40 1.50 1.62
1.41 1.40 1.39 1.33 1.26 1.18 1.19 1.30 1.36 1.41 1.44 1.44 1.46 1.47 1.49 1.44 1.41 1.42 1.43 1.43 1.42 1.43 1.45 1.48 1.58 1.62 1.63 1.60 1.57 1.53 1.47 1.43 1.41 1.38 1.32 1.35 1.37 1.39 1.42 1.46 1.51 1.57 1.63 1.68 1.72 1.77 1.79 1.79 1.76 1.71 1.68 1.65 1.65 1.60 1.59 1.61 1.65 1.71 1.74 1.74 1.77 1.71 1.69 1.69 1.67 1.69 1.68 1.65 1.69 1.73 1.72 1.66 1.61 1.58 1.55 1.51 1.44 1.40 1.36 1.34 1.31 1.28 1.32 1.41 1.49
1.35 1.35 1.34 1.30 1.24 1.16 1.20 1.25 1.31 1.38 1.40 1.41 1.42 1.43 1.45 1.40 1.38 1.39 1.40 1.41 1.40 1.38 1.36 1.39 1.43 1.49 1.51 1.52 1.52 1.51 1.48 1.45 1.40 1.36 1.36 1.38 1.42 1.46 1.47 1.48 1.53 1.59 1.63 1.65 1.67 1.70 1.79 1.82 1.80 1.75 1.70 1.70 1.68 1.63 1.59 1.54 1.58 1.66 1.66 1.69 1.63 1.61 1.59 1.62 1.66 1.66 1.61 1.60 1.65 1.73 1.75 1.73 1.67 1.61 1.57 1.53 1.47 1.43 1.40 1.34 1.31 1.28 1.29 1.35 1.43
1.35 1.32 1.29 1.31 1.25 1.13 1.14 1.22 1.27 1.34 1.35 1.37 1.39 1.41 1.40 1.37 1.35 1.33 1.33 1.35 1.36 1.33 1.34 1.40 1.49 1.54 1.52 1.49 1.47 1.46 1.48 1.48 1.49 1.46 1.45 1.46 1.51 1.52 1.50 1.50 1.53 1.59 1.62 1.65 1.66 1.72 1.82 1.84 1.83 1.81 1.76 1.72 1.68 1.65 1.60 1.57 1.56 1.58 1.62 1.64 1.57 1.52 1.51 1.50 1.57 1.59 1.55 1.55 1.60 1.71 1.75 1.77 1.75 1.70 1.65 1.60 1.54 1.47 1.41 1.35 1.31 1.29 1.28 1.31 1.40
1.40 1.36 1.33 1.26 1.23 1.12 1.12 1.18 1.29 1.32 1.31 1.33 1.34 1.35 1.37 1.34 1.31 1.28 1.27 1.31 1.33 1.32 1.34 1.40 1.53 1.58 1.58 1.53 1.49 1.49 1.53 1.58 1.60 1.55 1.47 1.50 1.54 1.56 1.55 1.52 1.53 1.57 1.65 1.65 1.67 1.70 1.80 1.81 1.82 1.81 1.80 1.76 1.68 1.64 1.63 1.56 1.56 1.55 1.54 1.57 1.56 1.46 1.39 1.44 1.55 1.57 1.54 1.47 1.51 1.61 1.72 1.76 1.77 1.76 1.73 1.72 1.67 1.56 1.48 1.42 1.36 1.32 1.31 1.30 1.34
1.47 1.32 1.28 1.27 1.23 1.14 1.09 1.14 1.26 1.28 1.28 1.28 1.29 1.34 1.34 1.27 1.24 1.22 1.21 1.28 1.33 1.34 1.38 1.39 1.47 1.55 1.58 1.58 1.55 1.50 1.51 1.59 1.58 1.55 1.51 1.52 1.45 1.47 1.51 1.57 1.58 1.63 1.78 1.80 1.80 1.80 1.81 1.81 1.76 1.75 1.73 1.72 1.69 1.64 1.61 1.58 1.54 1.53 1.52 1.52 1.51 1.47 1.38 1.39 1.53 1.56 1.53 1.46 1.44 1.49 1.63 1.72 1.76 1.76 1.75 1.76 1.76 1.71 1.62 1.54 1.44 1.37 1.34 1.31 1.31
1.39 1.32 1.32 1.30 1.27 1.16 1.11 1.11 1.19 1.25 1.24 1.28 1.30 1.31 1.28 1.27 1.21 1.20 1.17 1.18 1.31 1.37 1.43 1.46 1.44 1.49 1.57 1.59 1.56 1.54 1.56 1.60 1.62 1.61 1.63 1.68 1.61 1.59 1.61 1.66 1.66 1.77 1.86 1.85 1.82 1.83 1.83 1.79 1.76 1.74 1.71 1.67 1.67 1.67 1.63 1.59 1.59 1.54 1.52 1.53 1.52 1.47 1.40 1.38 1.49 1.53 1.51 1.43 1.43 1.42 1.49 1.63 1.72 1.76 1.76 1.76 1.76 1.76 1.73 1.66 1.59 1.50 1.41 1.35 1.33
1.38 1.31 1.31 1.30 1.28 1.17 1.10 1.09 1.14 1.20 1.21 1.25 1.23 1.24 1.25 1.23 1.19 1.21 1.23 1.22 1.26 1.38 1.47 1.51 1.55 1.57 1.65 1.65 1.69 1.66 1.64 1.63 1.64 1.68 1.71 1.73 1.68 1.68 1.73 1.75 1.80 1.85 1.88 1.85 1.80 1.81 1.82 1.84 1.81 1.73 1.71 1.68 1.69 1.70 1.63 1.56 1.58 1.58 1.52 1.51 1.51 1.46 1.42 1.41 1.44 1.51 1.52 1.46 1.45 1.43 1.41 1.50 1.66 1.72 1.75 1.76 1.76 1.76 1.74 1.72 1.68 1.60 1.53 1.44 1.36
1.32 1.30 1.32 1.31 1.30 1.24 1.13 1.08 1.11 1.16 1.18 1.20 1.17 1.18 1.20 1.18 1.16 1.19 1.20 1.26 1.28 1.39 1.48 1.55 1.58 1.66 1.70 1.71 1.73 1.67 1.67 1.65 1.64 1.67 1.72 1.68 1.71 1.74 1.76 1.78 1.81 1.80 1.84 1.79 1.78 1.75 1.75 1.73 1.72 1.70 1.71 1.71 1.74 1.68 1.60 1.53 1.51 1.54 1.50 1.45 1.47 1.45 1.39 1.40 1.40 1.51 1.51 1.50 1.47 1.44 1.35 1.41 1.57 1.68 1.74 1.75 1.76 1.75 1.75 1.74 1.72 1.67 1.60 1.55 1.48
1.35 1.35 1.34 1.33 1.34 1.32 1.17 1.08 1.11 1.13 1.13 1.15 1.11 1.11 1.13 1.11 1.10 1.18 1.22 1.32 1.34 1.44 1.54 1.52 1.59 1.64 1.66 1.74 1.73 1.73 1.69 1.68 1.71 1.69 1.67 1.67 1.74 1.75 1.74 1.76 1.78 1.82 1.82 1.74 1.81 1.77 1.70 1.67 1.68 1.69 1.72 1.69 1.66 1.64 1.55 1.48 1.49 1.50 1.50 1.43 1.43 1.42 1.38 1.39 1.42 1.48 1.48 1.50 1.49 1.45 1.41 1.36 1.49 1.63 1.70 1.72 1.74 1.75 1.75 1.75 1.73 1.69 1.66 1.61 1.57
1.42 1.37 1.39 1.36 1.39 1.35 1.20 1.16 1.14 1.15 1.14 1.08 1.06 1.06 1.11 1.09 1.09 1.20 1.33 1.37 1.44 1.49 1.55 1.57 1.57 1.60 1.67 1.74 1.76 1.77 1.73 1.74 1.74 1.71 1.68 1.67 1.69 1.69 1.68 1.73 1.72 1.79 1.83 1.81 1.87 1.80 1.75 1.73 1.72 1.76 1.74 1.72 1.64 1.55 1.52 1.48 1.46 1.44 1.47 1.43 1.40 1.40 1.39 1.42 1.44 1.50 1.50 1.52 1.52 1.47 1.38 1.33 1.43 1.55 1.66 1.69 1.70 1.71 1.72 1.75 1.74 1.69 1.67 1.67 1.64
1.41 1.38 1.41 1.42 1.41 1.36 1.24 1.20 1.19 1.17 1.15 1.11 1.08 1.05 1.10 1.11 1.14 1.24 1.37 1.46 1.51 1.50 1.55 1.58 1.56 1.56 1.67 1.71 1.74 1.79 1.77 1.73 1.74 1.73 1.69 1.65 1.65 1.67 1.69 1.70 1.71 1.77 1.82 1.80 1.79 1.75 1.77 1.75 1.72 1.76 1.74 1.72 1.62 1.58 1.55 1.49 1.41 1.37 1.43 1.36 1.36 1.32 1.32 1.40 1.43 1.51 1.52 1.51 1.51 1.49 1.36 1.29 1.36 1.47 1.59 1.65 1.66 1.67 1.67 1.70 1.70 1.69 1.67 1.66 1.69
1.48 1.47 1.46 1.44 1.40 1.39 1.29 1.23 1.25 1.20 1.16 1.13 1.10 1.07 1.13 1.17 1.24 1.29 1.40 1.48 1.49 1.52 1.51 1.54 1.56 1.60 1.61 1.66 1.69 1.71 1.75 1.73 1.75 1.73 1.71 1.66 1.66 1.68 1.69 1.67 1.68 1.72 1.80 1.79 1.77 1.74 1.73 1.74 1.76 1.77 1.70 1.69 1.62 1.54 1.58 1.53 1.41 1.39 1.38 1.31 1.31 1.26 1.30 1.38 1.44 1.49 1.47 1.50 1.49 1.49 1.53 1.48 1.35 1.40 1.55 1.63 1.63 1.65 1.65 1.66 1.68 1.69 1.68 1.67 1.69
1.43 1.49 1.48 1.42 1.45 1.47 1.39 1.29 1.29 1.22 1.18 1.19 1.17 1.12 1.15 1.22 1.33 1.33 1.41 1.47 1.48 1.48 1.50 1.55 1.56 1.57 1.56 1.59 1.60 1.63 1.67 1.73 1.74 1.71 1.74 1.69 1.69 1.66 1.64 1.67 1.72 1.75 1.76 1.79 1.79 1.73 1.65 1.65 1.70 1.73 1.68 1.65 1.57 1.53 1.51 1.47 1.47 1.47 1.41 1.28 1.26 1.23 1.31 1.38 1.44 1.46 1.49 1.49 1.50 1.50 1.54 1.62 1.59 1.47 1.45 1.55 1.60 1.62 1.64 1.63 1.64 1.67 1.67 1.65 1.66
1.48 1.47 1.45 1.43 1.46 1.48 1.44 1.31 1.33 1.28 1.24 1.21 1.21 1.23 1.27 1.28 1.36 1.37 1.41 1.45 1.47 1.45 1.49 1.56 1.55 1.57 1.58 1.57 1.56 1.56 1.57 1.64 1.66 1.68 1.69 1.69 1.67 1.67 1.66 1.71 1.80 1.81 1.78 1.81 1.82 1.74 1.64 1.59 1.62 1.60 1.63 1.64 1.57 1.49 1.46 1.45 1.46 1.46 1.45 1.33 1.25 1.26 1.32 1.36 1.42 1.41 1.43 1.48 1.53 1.49 1.53 1.61 1.63 1.60 1.57 1.57 1.58 1.60 1.63 1.62 1.63 1.65 1.65 1.63 1.63
1.47 1.46 1.50 1.51 1.46 1.47 1.46 1.35 1.35 1.31 1.30 1.27 1.26 1.32 1.35 1.34 1.40 1.42 1.44 1.47 1.47 1.46 1.50 1.53 1.56 1.57 1.59 1.57 1.58 1.52 1.48 1.52 1.57 1.64 1.67 1.69 1.67 1.66 1.69 1.74 1.77 1.77 1.82 1.80 1.80 1.69 1.64 1.59 1.59 1.62 1.58 1.57 1.52 1.40 1.38 1.37 1.42 1.44 1.45 1.37 1.31 1.25 1.23 1.32 1.36 1.39 1.45 1.53 1.56 1.54 1.53 1.56 1.58 1.59 1.61 1.58 1.56 1.58 1.60 1.62 1.62 1.64 1.64 1.63 1.64
1.51 1.48 1.45 1.47 1.46 1.46 1.48 1.42 1.36 1.34 1.34 1.33 1.32 1.34 1.41 1.37 1.43 1.47 1.48 1.48 1.45 1.45 1.50 1.54 1.56 1.54 1.57 1.55 1.56 1.52 1.49 1.49 1.51 1.58 1.63 1.65 1.67 1.68 1.71 1.70 1.74 1.71 1.74 1.76 1.73 1.72 1.63 1.54 1.51 1.60 1.62 1.52 1.42 1.34 1.28 1.33 1.36 1.40 1.39 1.40 1.38 1.33 1.30 1.34 1.37 1.40 1.50 1.56 1.61 1.59 1.57 1.56 1.55 1.60 1.63 1.61 1.59 1.57 1.57 1.60 1.62 1.61 1.62 1.62 1.62
1.56 1.53 1.49 1.47 1.46 1.49 1.48 1.48 1.46 1.44 1.41 1.39 1.34 1.33 1.41 1.42 1.47 1.51 1.49 1.47 1.46 1.45 1.49 1.53 1.52 1.54 1.56 1.53 1.54 1.52 1.50 1.49 1.48 1.51 1.58 1.64 1.67 1.73 1.75 1.73 1.72 1.70 1.68 1.73 1.71 1.69 1.67 1.59 1.50 1.54 1.57 1.52 1.37 1.34 1.29 1.33 1.37 1.38 1.40 1.39 1.41 1.38 1.39 1.42 1.43 1.46 1.48 1.54 1.67 1.60 1.58 1.60 1.55 1.58 1.60 1.57 1.58 1.53 1.52 1.55 1.59 1.62 1.64 1.64 1.62
1.58 1.56 1.53 1.53 1.53 1.53 1.53 1.52 1.49 1.48 1.46 1.47 1.44 1.40 1.44 1.45 1.50 1.50 1.46 1.46 1.47 1.44 1.49 1.50 1.50 1.53 1.52 1.53 1.54 1.52 1.50 1.49 1.46 1.47 1.49 1.59 1.66 1.73 1.74 1.74 1.73 1.67 1.66 1.68 1.66 1.63 1.62 1.60 1.52 1.46 1.54 1.55 1.43 1.38 1.35 1.33 1.33 1.33 1.34 1.38 1.41 1.39 1.42 1.47 1.49 1.44 1.46 1.49 1.53 1.58 1.60 1.56 1.53 1.51 1.49 1.51 1.53 1.50 1.48 1.49 1.53 1.55 1.58 1.59 1.60
1.59 1.58 1.55 1.54 1.52 1.54 1.56 1.57 1.53 1.51 1.49 1.49 1.47 1.41 1.41 1.37 1.37 1.43 1.41 1.40 1.42 1.40 1.42 1.47 1.50 1.49 1.52 1.53 1.52 1.51 1.49 1.46 1.44 1.44 1.46 1.52 1.60 1.68 1.68 1.75 1.72 1.70 1.63 1.62 1.58 1.59 1.53 1.48 1.48 1.42 1.41 1.48 1.49 1.47 1.38 1.28 1.32 1.32 1.27 1.36 1.43 1.44 1.43 1.46 1.48 1.47 1.48 1.47 1.47 1.53 1.49 1.48 1.44 1.40 1.41 1.45 1.49 1.44 1.47 1.47 1.43 1.45 1.48 1.54 1.58
1.58 1.58 1.54 1.51 1.50 1.49 1.52 1.50 1.55 1.56 1.49 1.42 1.41 1.37 1.30 1.30 1.34 1.32 1.27 1.31 1.33 1.36 1.36 1.40 1.45 1.48 1.51 1.53 1.51 1.49 1.48 1.44 1.41 1.40 1.41 1.48 1.54 1.61 1.64 1.66 1.68 1.67 1.63 1.57 1.58 1.56 1.56 1.53 1.49 1.48 1.42 1.35 1.35 1.39 1.27 1.24 1.16 1.16 1.25 1.27 1.31 1.41 1.42 1.41 1.44 1.48 1.50 1.49 1.51 1.47 1.45 1.40 1.38 1.35 1.34 1.35 1.40 1.44 1.45 1.40 1.39 1.44 1.46 1.48 1.49
1.48 1.55 1.50 1.48 1.48 1.51 1.50 1.53 1.58 1.56 1.50 1.44 1.40 1.37 1.33 1.27 1.21 1.22 1.26 1.28 1.28 1.28 1.27 1.34 1.40 1.48 1.52 1.53 1.52 1.50 1.48 1.44 1.41 1.38 1.39 1.42 1.46 1.52 1.58 1.59 1.60 1.62 1.65 1.66 1.59 1.55 1.52 1.51 1.48 1.39 1.49 1.36 1.27 1.31 1.22 1.18 1.04 1.03 1.01 1.05 1.15 1.27 1.38 1.40 1.42 1.45 1.48 1.50 1.49 1.45 1.42 1.39 1.37 1.36 1.36 1.33 1.37 1.39 1.39 1.38 1.36 1.41 1.44 1.43 1.43
1.44 1.48 1.52 1.50 1.49 1.46 1.49 1.54 1.56 1.54 1.50 1.49 1.44 1.35 1.35 1.36 1.31 1.28 1.27 1.26 1.35 1.35 1.32 1.38 1.45 1.46 1.51 1.53 1.52 1.50 1.48 1.44 1.43 1.41 1.37 1.39 1.41 1.46 1.49 1.57 1.58 1.59 1.61 1.59 1.57 1.50 1.47 1.46 1.47 1.37 1.35 1.40 1.33 1.34 1.21 1.12 0.98 1.07 1.10 1.03 0.95 0.93 1.10 1.23 1.36 1.42 1.47 1.49 1.50 1.45 1.41 1.40 1.40 1.41 1.36 1.29 1.29 1.29 1.28 1.31 1.32 1.34 1.36 1.38 1.37
1.38 1.44 1.49 1.48 1.48 1.45 1.44 1.49 1.52 1.54 1.51 1.49 1.46 1.44 1.40 1.39 1.40 1.37 1.36 1.33 1.27 1.35 1.37 1.43 1.44 1.47 1.47 1.52 1.51 1.49 1.48 1.46 1.44 1.43 1.40 1.37 1.38 1.39 1.46 1.52 1.56 1.60 1.58 1.54 1.53 1.48 1.45 1.44 1.48 1.43 1.39 1.22 1.24 1.26 1.37 1.21 1.10 0.98 0.88 0.93 0.96 0.97 0.86 0.96 1.10 1.27 1.43 1.43 1.42 1.42 1.41 1.41 1.47 1.48 1.48 1.37 1.36 1.33 1.35 1.34 1.30 1.36 1.38 1.39 1.38
1.31 1.34 1.39 1.42 1.42 1.40 1.40 1.43 1.47 1.50 1.49 1.49 1.48 1.47 1.44 1.41 1.42 1.42 1.44 1.39 1.42 1.37 1.34 1.34 1.38 1.41 1.45 1.47 1.46 1.49 1.48 1.46 1.44 1.42 1.40 1.35 1.36 1.38 1.42 1.49 1.55 1.59 1.59 1.54 1.52 1.49 1.47 1.47 1.47 1.43 1.38 1.25 1.21 1.30 1.32 1.25 1.17 1.13 1.02 1.00 0.96 0.90 0.86 0.95 1.08 1.17 1.35 1.31 1.33 1.36 1.35 1.36 1.40 1.44 1.42 1.41 1.47 1.45 1.44 1.44 1.41 1.43 1.44 1.45 1.43
1.28 1.31 1.36 1.39 1.40 1.41 1.42 1.43 1.46 1.50 1.48 1.49 1.50 1.47 1.38 1.29 1.25 1.22 1.18 1.19 1.15 1.17 1.13 1.17 1.25 1.28 1.29 1.39 1.45 1.47 1.45 1.43 1.43 1.41 1.39 1.37 1.33 1.35 1.40 1.46 1.50 1.58 1.58 1.54 1.55 1.54 1.50 1.46 1.47 1.45 1.41 1.36 1.33 1.28 1.21 1.26 1.23 1.17 1.18 1.16 1.12 1.00 1.00 1.07 1.04 0.90 1.27 1.34 1.32 1.33 1.34 1.34 1.36 1.35 1.38 1.38 1.40 1.41 1.45 1.43 1.45 1.44 1.46 1.43 1.40
1.25 1.32 1.35 1.37 1.40 1.41 1.40 1.40 1.40 1.43 1.49 1.50 1.49 1.46 1.38 1.32 1.22 1.14 1.12 1.08 1.04 1.09 1.15 1.23 1.26 1.30 1.35 1.35 1.38 1.43 1.43 1.39 1.40 1.38 1.37 1.35 1.33 1.34 1.37 1.43 1.48 1.54 1.59 1.56 1.52 1.49 1.49 1.49 1.51 1.48 1.46 1.43 1.41 1.25 1.19 1.16 1.20 1.20 1.22 1.24 1.28 1.26 1.29 1.06 0.93 1.05 0.94 1.16 1.27 1.28 1.31 1.35 1.37 1.33 1.34 1.37 1.38 1.38 1.43 1.47 1.43 1.46 1.43 1.41 1.39
1.27 1.30 1.32 1.35 1.36 1.37 1.39 1.38 1.41 1.42 1.45 1.47 1.46 1.43 1.33 1.29 1.22 1.17 1.14 1.09 1.05 1.03 1.11 1.16 1.27 1.31 1.30 1.33 1.38 1.40 1.43 1.41 1.38 1.37 1.36 1.34 1.32 1.32 1.35 1.42 1.48 1.53 1.56 1.53 1.52 1.54 1.52 1.53 1.54 1.53 1.54 1.47 1.42 1.33 1.25 1.19 1.07 1.04 1.19 1.24 1.28 1.32 1.32 1.22 1.15 1.06 1.01 0.95 1.04 1.26 1.33 1.35 1.35 1.35 1.36 1.34 1.37 1.36 1.38 1.43 1.42 1.44 1.44 1.43 1.42
1.33 1.29 1.28 1.31 1.35 1.37 1.37 1.38 1.38 1.40 1.42 1.45 1.42 1.40 1.36 1.30 1.23 1.17 1.11 1.12 1.11 1.11 1.16 1.19 1.19 1.24 1.23 1.30 1.33 1.36 1.38 1.38 1.37 1.34 1.34 1.35 1.34 1.31 1.33 1.38 1.46 1.52 1.55 1.54 1.54 1.56 1.54 1.49 1.46 1.49 1.48 1.46 1.44 1.41 1.35 1.20 1.11 1.03 1.05 1.17 1.27 1.26 1.27 1.24 1.19 1.20 1.05 0.97 0.99 1.05 1.11 1.28 1.31 1.33 1.36 1.37 1.37 1.38 1.38 1.38 1.41 1.42 1.42 1.41 1.42
1.30 1.31 1.32 1.35 1.37 1.38 1.35 1.35 1.35 1.39 1.41 1.41 1.40 1.37 1.36 1.34 1.26 1.20 1.11 1.07 1.11 1.15 1.19 1.16 1.15 1.19 1.15 1.19 1.24 1.27 1.30 1.31 1.33 1.34 1.34 1.36 1.35 1.34 1.33 1.32 1.39 1.51 1.55 1.54 1.53 1.53 1.54 1.53 1.49 1.50 1.52 1.45 1.45 1.42 1.35 1.30 1.21 1.17 1.11 1.10 1.16 1.21 1.21 1.19 1.15 1.16 1.14 1.10 0.97 1.01 1.08 1.08 1.05 1.17 1.29 1.29 1.31 1.33 1.35 1.36 1.37 1.39 1.39 1.38 1.40
1.32 1.30 1.31 1.34 1.36 1.36 1.34 1.31 1.32 1.36 1.39 1.39 1.38 1.33 1.34 1.32 1.25 1.20 1.13 1.07 1.07 1.09 1.10 1.11 1.14 1.15 1.12 1.13 1.16 1.19 1.25 1.26 1.29 1.31 1.34 1.37 1.36 1.35 1.32 1.31 1.37 1.47 1.54 1.55 1.51 1.50 1.52 1.54 1.55 1.54 1.52 1.45 1.42 1.39 1.38 1.36 1.31 1.23 1.16 1.08 1.12 1.18 1.13 1.08 1.09 1.12 1.11 1.06 1.04 1.06 1.12 1.14 1.13 1.11 1.21 1.28 1.29 1.31 1.32 1.33 1.32 1.33 1.35 1.35 1.37
Wind_Speed
17 17 17 18 18 18 19 18 18 17 17 17 16 16 15 15 14 14 14 14 14 14 15 15 15 15 15 15 15 15 15 14 14 14 14 14 14 14 13 13 12 11 11 11 11 11 11 11 11 11 10 10 10 10 10 10 10 10 10 10 10 10 10 9 9 8 8 7 7 7 7 7 7 7 7 7 7 7 7 7 8 8 8 8 9
17 17 17 18 18 18 18 18 17 17 17 16 16 15 15 14 14 14 14 14 14 15 15 15 16 16 15 15 15 15 15 14 14 14 14 14 14 13 13 12 12 11 11 11 11 11 11 11 11 11 11 11 10 10 10 10 10 10 10 10 10 10 10 10 9 9 9 8 8 7 7 7 7 7 7 7 7 7 7 8 8 8 8 9 9
17 17 17 18 18 18 18 18 17 17 16 16 15 15 14 14 14 14 14 14 15 15 15 16 16 15 15 15 15 15 15 14 14 14 14 14 13 13 12 12 11 11 11 11 11 11 11 11 11 11 11 11 11 10 10 10 10 10 11 11 10 10 10 10 10 10 9 9 9 8 8 8 8 8 8 8 8 8 8 8 8 8 9 9 9
17 17 18 18 18 18 18 17 17 16 16 15 15 14 14 14 14 14 14 14 15 15 15 15 15 15 15 15 15 15 14 14 14 14 13 13 13 12 12 12 11 11 11 11 11 11 10 10 10 10 10 10 10 10 10 10 11 11 11 11 11 10 10 11 10 10 10 10 9 9 9 8 8 8 8 8 8 8 9 9 9 9 9 9 9
18 18 18 19 18 18 17 17 16 16 15 15 15 14 14 13 13 14 14 15 15 15 15 15 15 15 15 15 15 14 14 14 13 13 13 13 12 12 12 11 11 11 11 11 10 10 10 10 10 10 10 10 10 10 10 10 11 11 11 11 11 11 11 11 11 11 11 11 10 10 9 9 9 9 9 9 9 9 9 9 10 10 10 10 9
18 18 19 18 18 18 17 16 16 15 15 15 14 14 14 13 13 14 14 15 15 15 15 15 15 15 15 15 14 14 14 13 13 13 13 13 12 12 12 11 11 11 11 10 10 10 9 9 9 9 9 10 10 10 10 10 11 11 11 11 11 11 11 11 11 12 12 11 11 10 10 10 10 10 10 10 10 10 10 11 10 10 10 10 10
19 19 19 18 18 17 17 16 15 15 15 14 14 14 13 13 13 14 14 15 15 15 15 15 15 15 15 14 14 14 14 14 13 13 13 13 13 12 12 12 11 11 11 10 10 10 9 9 9 9 9 10 10 10 10 11 11 11 11 11 11 11 12 11 11 11 12 12 12 11 11 11 11 11 11 11 11 11 11 12 12 11 11 11 10
19 19 19 18 17 17 16 16 15 15 14 14 14 14 13 13 14 14 15 15 14 14 14 15 15 15 14 14 14 14 14 14 14 14 14 13 13 13 13 12 12 11 11 11 10 10 10 10 9 9 9 10 10 10 11 11 11 11 11 11 11 11 11 11 11 11 12 12 12 12 12 12 12 12 11 11 12 12 12 12 12 12 11 11 10
19 19 18 18 17 17 16 15 15 15 14 14 14 14 14 14 14 14 14 14 14 14 14 15 14 14 14 14 14 14 14 14 14 14 14 13 13 13 13 12 12 12 11 11 11 11 11 10 10 10 10 10 10 11 11 11 11 11 11 11 11 11 11 11 11 11 11 11 12 12 12 12 12 12 12 12 12 12 12 12 12 12 12 11 11
19 19 18 17 17 16 16 15 15 14 14 14 14 14 14 14 15 15 14 15 15 14 14 14 14 14 14 14 14 14 14 14 14 14 14 13 13 13 13 12 12 12 12 12 12 12 12 11 11 11 11 11 11 11 11 11 11 11 11 11 10 10 11 11 11 11 11 11 12 12 12 12 12 12 12 12 12 12 12 12 12 12 12 11 11
19 18 18 17 17 16 15 15 14 14 14 14 15 15 15 15 15 15 15 15 15 14 14 14 14 14 14 14 14 14 14 14 14 14 14 13 13 13 13 13 12 12 12 12 12 12 12 12 12 12 11 11 11 11 11 11 11 10 10 10 10 10 10 11 11 11 11 11 11 11 11 11 12 12 12 12 12 12 11 12 12 12 12 11 11
18 18 17 17 16 15 15 15 14 15 15 15 15 15 15 15 15 15 15 15 15 14 14 14 14 15 14 14 14 14 14 14 14 14 14 14 13 13 13 13 13 13 13 13 13 12 12 12 12 12 11 11 11 11 11 10 10 10 10 10 11 11 10 11 11 11 11 11 11 11 11 11 11 12 12 12 12 12 11 11 12 12 11 11 10
18 18 17 16 16 15 15 15 15 15 15 15 15 15 15 15 15 15 15 15 15 15 15 15 15 15 15 14 14 14 14 14 14 14 14 14 14 13 13 13 13 13 13 13 13 13 12 12 12 12 11 11 11 11 11 11 10 10 10 10 10 11 11 11 11 11 11 11 11 11 11 11 11 11 12 12 12 11 11 11 11 11 10 10 9
18 18 17 16 15 15 15 15 15 15 15 15 15 15 15 15 15 15 15 15 15 15 15 15 15 15 15 14 14 14 14 14 14 14 14 14 14 13 13 13 13 13 13 13 13 13 13 13 12 12 12 11 11 11 11 11 10 10 10 10 10 10 10 10 10 10 10 10 10 10 11 11 11 11 11 11 11 11 10 10 10 10 10 10 9
18 18 17 16 15 15 15 15 15 15 16 16 16 16 16 16 15 15 15 15 15 15 15 15 15 15 15 15 14 14 14 14 14 14 14 14 14 13 13 13 14 14 13 13 13 13 13 13 13 13 13 12 12 12 11 11 11 10 10 9 10 10 10 10 10 10 10 10 10 10 10 10 11 11 11 11 10 10 10 10 9 9 9 9 9
18 18 16 16 15 14 15 15 15 16 16 16 16 16 16 16 15 15 15 15 15 15 15 15 15 15 15 15 15 14 14 14 14 14 14 14 14 14 14 14 14 14 14 13 13 13 13 13 13 13 13 13 13 12 12 12 11 11 10 10 10 10 9 9 9 10 10 10 9 9 9 10 10 11 11 10 10 10 9 9 9 9 8 8 8
18 17 16 15 15 14 15 15 15 16 16 16 16 16 16 16 16 15 15 15 15 15 15 15 15 15 15 15 14 14 14 14 14 14 14 14 14 14 14 13 13 13 13 13 13 13 13 13 13 13 13 13 13 12 12 12 12 12 11 11 11 10 10 9 9 9 9 9 9 9 9 9 10 10 10 10 10 10 9 9 8 8 8 8 8
18 17 16 15 15 15 15 15 15 16 16 16 16 16 16 16 16 15 15 15 15 15 15 15 15 15 15 14 14 14 14 14 14 14 14 14 14 13 13 13 13 13 13 13 13 13 13 13 13 12 13 13 13 12 12 12 12 12 12 12 11 11 10 10 9 9 9 9 9 9 9 9 9 9 9 10 9 9 9 8 8 8 7 7 7
18 17 16 15 15 15 15 15 15 16 16 16 16 16 16 16 16 15 15 15 15 15 15 15 15 15 15 14 14 14 14 14 13 13 13 13 13 13 13 13 13 13 13 13 13 13 13 13 13 13 12 12 13 12 12 12 12 12 12 12 12 12 11 10 10 9 9 9 9 9 9 9 9 9 9 9 9 9 8 8 7 7 7 6 7
17 16 16 15 15 15 15 15 16 16 16 16 16 16 16 16 16 15 15 15 15 15 15 15 15 15 15 14 14 14 14 13 13 13 13 13 13 13 12 12 12 12 12 12 12 12 12 12 12 12 12 12 12 12 12 12 12 12 12 12 12 12 12 11 10 10 9 9 9 9 9 9 9 9 9 9 8 8 8 8 7 7 6 6 6
17 16 16 15 15 15 16 16 16 17 17 17 17 17 16 16 15 15 15 15 15 15 15 15 15 15 15 14 14 14 13 13 13 13 13 12 12 12 12 11 11 11 11 11 11 11 11 11 11 11 11 11 11 11 11 12 11 11 11 11 11 11 11 11 11 11 10 10 9 9 9 9 9 9 9 9 9 9 9 8 8 7 7 6 6
17 17 16 16 15 15 16 16 17 17 17 17 17 17 16 16 15 15 15 15 15 15 15 15 15 15 14 14 14 13 13 13 12 12 12 12 11 11 11 10 10 10 10 10 10 10 10 10 10 10 10 10 10 10 11 11 11 10 10 10 10 10 11 11 11 11 10 10 10 10 10 10 10 10 10 9 9 9 9 9 9 8 8 7 7
17 17 16 16 16 16 16 17 17 17 17 17 17 16 16 16 15 15 15 15 15 15 15 15 14 14 14 13 13 13 13 12 12 12 11 11 10 10 10 9 9 9 9 9 9 9 9 9 9 9 9 9 9 9 10 10 10 9 9 9 9 9 10 10 10 10 10 10 10 9 10 9 9 9 9 9 9 9 9 9 9 8 8 8 7
18 17 16 16 16 16 16 17 18 18 18 17 17 16 16 16 15 15 15 15 15 15 14 14 14 14 13 13 13 12 12 11 11 11 10 10 9 9 9 9 9 9 9 8 8 8 8 8 8 8 8 8 8 8 9 9 9 9 8 9 9 8 8 9 9 9 9 9 9 9 9 9 9 9 9 9 9 9 9 9 9 8 8 8 8
18 17 16 16 17 17 17 18 18 18 18 17 17 16 16 15 15 15 15 15 14 14 14 13 13 13 12 12 12 11 11 11 10 10 10 9 9 8 8 8 8 8 8 7 7 7 7 7 7 7 8 7 7 8 8 8 8 8 8 7 7 7 7 8 9 9 9 8 9 9 9 9 8 8 8 8 8 8 8 8 8 8 8 8 8
18 17 17 17 17 17 17 18 19 19 18 17 17 16 16 15 15 15 15 14 14 14 13 13 13 12 12 12 11 11 10 10 10 9 9 9 8 8 8 7 7 7 7 7 7 7 7 7 7 7 7 7 7 7 7 7 7 7 6 6 6 6 7 8 8 9 8 8 8 8 8 8 8 8 8 8 8 8 8 8 8 8 8 8 8
18 18 18 17 18 18 18 19 19 19 18 18 17 17 16 16 15 15 14 14 13 13 12 12 12 11 11 11 11 10 10 9 9 9 9 8 8 7 7 7 7 6 6 6 6 6 6 6 6 6 6 6 6 6 6 6 7 6 5 5 6 6 6 7 8 8 8 8 8 8 8 8 8 8 8 8 8 8 8 8 8 8 8 8 8
18 18 18 18 18 18 19 19 19 19 18 18 17 17 16 16 15 15 14 13 13 12 12 12 12 11 10 11 10 10 9 9 8 8 8 8 7 7 7 7 6 6 6 6 6 6 6 6 6 6 6 6 5 5 6 6 6 6 5 5 6 6 6 6 7 8 8 8 8 8 8 8 8 8 8 8 8 8 8 8 7 8 8 7 7
19 19 18 19 19 18 19 19 19 19 19 18 17 17 16 16 15 15 14 13 12 12 12 12 11 11 10 10 10 10 9 8 8 8 7 7 7 6 6 6 6 6 5 5 5 5 6 6 6 6 5 5 5 5 5 5 5 6 6 5 6 6 6 7 7 7 7 7 7 8 8 8 8 8 8 8 8 8 8 7 7 7 7 7 7
19 19 19 19 19 19 20 20 20 20 19 18 17 17 16 16 15 15 14 13 12 12 11 11 11 11 11 10 10 10 9 8 7 7 7 7 6 6 6 6 5 5 5 5 5 5 6 6 6 6 5 5 5 5 5 6 6 6 6 6 6 6 6 7 7 7 7 7 7 7 8 8 8 8 8 8 8 7 7 7 7 7 7 7 7
20 20 19 19 19 20 20 20 20 20 19 18 17 17 16 16 15 15 14 13 13 12 11 11 11 11 11 10 10 9 9 8 8 7 7 7 6 6 6 6 5 6 6 5 6 5 5 6 6 6 6 5 5 5 5 6 6 5 6 6 5 6 6 7 7 7 7 7 7 7 8 8 8 7 7 7 7 7 7 7 6 6 6 6 6
20 20 20 20 20 20 21 21 21 20 20 18 18 17 16 16 15 15 14 14 13 12 12 11 11 11 11 10 10 9 9 8 8 7 7 7 6 6 6 6 6 6 6 6 6 6 6 6 6 6 6 6 6 6 6 6 6 5 5 5 5 6 6 7 7 7 7 7 7 7 8 8 7 7 7 7 7 6 6 6 6 6 6 5 5
19 20 20 20 21 21 21 21 21 21 20 19 18 17 17 16 15 15 14 14 13 12 12 12 11 12 11 11 10 9 9 8 8 7 7 7 7 6 6 6 6 6 6 6 6 6 6 6 6 6 6 6 6 6 6 6 6 5 5 5 5 6 7 8 8 7 7 7 7 7 8 7 7 6 6 6 6 6 6 6 6 5 5 5 5
19 20 21 21 21 21 21 21 21 21 20 20 19 18 17 16 16 15 14 14 13 13 12 12 12 12 12 11 10 9 9 8 8 8 7 7 7 6 6 6 6 6 6 6 6 6 6 6 6 6 6 6 6 5 5 5 5 5 5 6 6 6 8 9 8 7 7 7 7 7 7 7 7 6 6 6 5 5 5 5 5 4 4 4 4
19 20 21 21 21 21 22 22 22 21 21 20 19 18 17 17 16 15 15 14 14 13 13 12 12 12 12 12 11 10 9 8 8 8 7 7 7 6 6 6 6 6 6 6 6 6 7 6 7 7 6 6 6 5 5 4 5 6 6 6 6 7 9 9 7 7 6 6 6 7 7 6 6 6 6 6 5 5 5 5 4 4 4 4 4
20 20 21 22 22 22 22 22 22 22 21 21 20 19 18 17 16 15 15 15 14 14 13 13 12 12 12 12 11 10 9 9 8 8 7 7 7 6 6 6 6 6 7 7 7 7 7 7 7 7 7 7 6 5 5 4 5 6 6 6 7 8 9 8 7 7 6 7 7 6 6 6 6 6 5 5 5 5 5 4 4 3 3 3 3
20 20 21 22 22 22 23 22 23 22 22 21 20 19 18 17 17 16 16 15 15 14 14 14 13 12 12 12 11 10 9 9 8 8 7 7 7 6 6 6 6 7 7 7 7 7 7 7 8 7 7 7 7 7 6 6 6 7 7 7 8 8 8 7 7 6 6 7 7 6 6 6 6 5 5 5 5 5 4 4 3 3 3 3 3
21 21 21 22 23 23 23 23 23 23 22 22 21 19 18 18 17 16 16 15 15 15 14 14 13 13 13 12 11 10 9 9 8 8 7 7 6 6 6 6 6 7 7 7 7 8 8 8 8 8 7 7 8 7 7 7 6 6 7 8 8 8 7 7 7 6 6 7 7 6 6 6 5 5 5 5 5 4 4 3 3 3 3 2 2
22 21 22 22 23 23 23 23 23 23 23 22 21 20 19 18 17 17 16 16 15 15 15 14 14 14 13 12 11 10 9 9 9 8 7 7 6 6 6 6 6 7 7 7 7 7 8 8 8 8 8 8 8 8 7 7 6 6 7 7 7 8 7 7 7 6 6 6 6 6 6 5 5 4 4 4 4 4 3 3 3 2 2 2 2
22 22 22 23 23 24 24 24 23 23 23 22 22 20 19 19 18 17 17 16 16 15 15 15 14 14 13 12 11 10 10 9 9 8 8 7 6 6 6 6 6 6 7 7 7 7 7 8 8 8 8 8 8 8 8 7 7 7 8 8 7 7 7 7 7 6 6 6 6 6 5 5 5 4 4 4 4 3 3 3 3 2 2 1 1
23 23 23 23 24 24 24 24 24 23 23 23 22 21 20 20 19 18 18 17 16 16 16 15 15 14 14 13 12 11 11 10 9 8 8 7 6 6 5 6 6 6 6 6 6 7 7 7 8 8 8 8 8 8 8 8 9 9 9 8 8 7 7 7 6 6 6 7 6 5 5 5 4 4 4 4 4 3 3 3 2 2 1 1 1
23 24 24 24 24 25 25 25 24 24 24 23 22 21 21 20 19 19 18 18 17 17 16 16 15 15 14 13 12 11 11 10 9 8 8 7 6 6 5 5 5 5 6 6 6 6 7 7 7 7 7 8 8 7 8 8 8 8 8 8 8 7 7 7 6 5 6 6 6 5 5 4 4 4 4 4 3 3 3 2 2 2 1 0 0
24 25 25 25 25 25 25 25 25 25 24 24 23 22 21 20 20 19 19 18 18 17 17 16 16 15 15 14 13 12 11 10 9 8 8 7 6 5 5 5 5 5 5 5 5 6 6 6 7 7 7 7 7 7 7 7 7 7 8 7 7 7 6 6 5 5 5 5 5 4 4 4 4 4 4 4 3 3 3 2 2 1 1 1 1
24 25 26 26 25 25 26 26 25 25 25 24 23 22 21 21 20 19 19 18 18 18 17 17 16 16 15 14 13 12 11 10 10 9 8 7 6 6 5 5 5 5 5 5 5 5 5 5 6 6 6 7 6 7 7 7 7 7 7 7 6 7 6 5 4 4 4 5 4 4 4 4 4 3 4 3 3 3 2 2 1 1 1 1 1
24 25 27 27 26 26 26 26 26 26 25 25 24 23 22 21 20 19 19 19 18 18 18 17 17 16 16 15 14 13 12 11 10 9 8 7 6 6 5 5 4 4 4 4 4 4 5 5 5 5 5 6 6 6 6 6 6 6 7 7 6 6 5 4 4 4 4 4 3 4 4 4 3 3 2 2 2 2 2 2 2 1 2 2 2
24 25 26 27 27 26 26 27 27 26 26 25 25 23 22 22 21 21 20 20 19 19 19 18 17 16 16 15 14 14 13 11 10 9 8 7 7 6 6 5 4 4 4 3 3 4 4 4 5 4 5 5 6 6 6 6 6 6 6 6 6 5 5 5 5 4 3 3 3 3 3 3 2 2 1 1 1 1 1 2 2 2 2 2 2
25 25 26 27 28 27 27 27 27 27 26 26 25 24 23 23 22 22 21 20 20 19 19 19 18 16 16 15 14 14 13 12 11 10 9 8 7 6 6 5 4 4 3 3 3 3 3 3 4 4 4 5 5 5 5 6 6 6 5 5 5 6 5 6 5 5 4 3 3 3 2 2 1 1 1 0 1 1 1 2 2 2 2 2 2
25 26 26 27 28 28 27 28 28 27 27 27 26 25 24 23 23 22 22 21 20 20 19 19 18 17 16 16 15 14 13 12 11 10 9 8 7 7 6 6 5 4 4 3 3 2 3 3 3 4 4 4 4 4 5 5 5 5 5 5 5 5 5 5 5 5 5 4 3 2 2 1 1 1 0 0 0 1 1 1 1 1 2 1 1
25 27 27 28 28 28 28 28 28 28 28 28 27 25 24 24 23 23 22 21 21 20 19 19 19 18 17 16 15 14 13 13 12 11 10 9 8 7 7 6 5 5 4 4 3 3 3 3 3 3 3 3 3 3 4 4 4 4 4 4 5 5 5 5 5 5 5 5 4 3 2 2 2 1 0 0 1 1 1 1 1 1 1 1 1
25 27 28 28 29 29 28 29 29 29 29 29 28 26 25 24 24 23 23 22 21 20 20 19 19 18 17 17 16 15 14 13 12 11 10 9 9 8 8 7 7 6 5 5 4 3 3 3 3 3 4 4 3 3 3 3 3 3 3 3 4 4 5 5 4 4 4 4 4 3 2 2 2 1 1 1 0 0 1 1 1 1 1 2 2
25 27 28 29 29 29 29 29 30 29 29 29 28 27 26 25 24 24 24 23 22 21 21 20 20 19 18 17 16 16 15 14 13 12 11 10 10 9 9 8 8 7 7 6 5 5 4 4 3 4 4 4 4 3 3 2 2 2 2 2 2 3 4 4 4 3 3 4 3 3 2 1 1 1 1 1 0 0 1 1 2 2 2 3 3
Wind_Direction
139 137 136 136 135 135 134 133 133 132 130 128 126 125 124 123 122 120 118 117 117 117 116 117 116 116 116 116 116 116 115 114 114 115 115 114 114 112 111 110 108 106 105 105 104 103 102 100 97 95 93 94 96 98 98 97 96 96 97 98 99 99 98 98 98 100 102 104 107 109 112 117 122 126 128 130 131 131 130 128 127 124 120 115 111
139 138 137 137 137 136 135 135 134 132 131 129 127 126 124 123 121 120 118 117 117 116 116 116 116 116 116 115 115 115 115 114 114 114 114 114 113 112 112 110 108 107 106 106 104 104 103 101 99 96 94 95 97 98 98 97 96 96 97 98 98 97 97 96 95 96 98 100 102 105 109 113 117 121 124 126 129 132 131 128 129 127 123 120 116
139 139 138 139 138 138 136 135 134 133 132 130 129 127 124 123 121 119 118 118 117 116 116 116 116 116 115 115 114 115 114 114 113 114 114 114 114 113 112 110 109 107 107 107 105 104 102 100 98 95 93 95 96 97 98 98 97 97 97 97 97 96 95 95 94 93 94 96 97 99 104 111 115 118 119 122 125 129 131 130 131 130 128 123 118
141 140 139 139 138 138 137 135 135 134 133 131 129 127 125 122 121 120 119 119 118 117 117 117 117 116 116 116 115 114 113 113 113 114 114 114 114 113 111 110 108 107 107 106 105 103 101 99 97 95 93 93 95 96 98 99 99 99 98 97 96 96 96 95 93 92 92 94 94 96 100 107 113 115 116 118 121 126 130 132 133 132 130 125 119
141 140 139 139 138 138 138 136 136 135 134 132 130 127 125 123 122 122 121 120 119 119 119 118 117 117 117 116 115 113 112 113 113 114 115 114 114 112 111 109 108 107 106 106 105 103 100 98 96 94 92 93 95 96 97 99 101 100 99 98 97 97 97 95 93 92 91 93 93 94 97 103 109 112 114 116 119 123 128 131 133 132 129 124 120
142 141 140 139 139 139 138 137 136 136 135 132 130 128 126 125 125 124 123 122 121 121 120 118 117 117 117 116 115 114 113 112 113 113 113 113 112 111 110 108 107 106 105 104 103 102 100 98 96 94 92 92 95 96 96 99 101 101 100 100 98 98 98 96 93 92 90 90 92 93 95 100 106 110 112 113 116 120 124 127 129 129 126 122 118
142 141 141 140 140 140 139 138 138 137 135 133 130 128 127 126 126 126 125 123 123 122 121 119 119 119 118 116 115 113 112 111 111 111 111 111 110 109 108 107 106 104 103 102 101 99 98 97 96 95 93 92 94 95 96 98 100 101 101 101 100 100 99 97 94 92 89 89 91 93 94 98 103 108 111 112 114 118 121 122 124 125 123 120 117
143 142 141 141 140 140 139 139 139 138 135 133 131 129 128 127 128 127 126 125 124 123 122 121 121 120 118 117 115 113 112 111 110 110 109 109 108 107 106 105 104 102 100 99 98 97 96 95 94 93 93 93 93 96 97 99 100 101 101 102 102 102 101 98 95 93 91 90 90 93 94 96 100 105 109 112 113 116 119 120 122 122 120 119 119
144 143 142 142 142 141 140 140 139 138 135 133 132 130 128 128 129 128 127 126 125 124 123 123 122 121 119 117 116 114 112 111 110 109 109 108 107 106 105 103 101 100 98 97 96 95 94 93 92 92 92 94 95 96 98 99 100 101 100 101 104 105 103 100 97 95 93 92 92 93 95 96 98 102 107 111 112 114 118 119 120 120 118 119 119
145 144 144 143 143 142 141 141 139 137 135 134 132 131 129 129 130 128 127 126 125 125 124 124 123 122 120 118 117 115 113 112 110 109 109 108 107 105 104 102 100 99 98 97 96 94 92 91 91 92 92 94 97 97 98 99 100 100 99 101 104 106 105 103 100 97 95 94 94 95 97 98 98 101 105 109 112 114 116 118 119 118 119 120 119
146 145 145 144 143 143 142 141 140 138 136 135 133 131 130 130 130 128 127 126 126 125 125 124 123 122 120 119 117 116 114 112 111 110 109 107 106 104 103 101 99 98 98 96 95 93 91 91 91 92 93 94 96 97 98 99 100 100 100 101 103 105 106 105 103 100 98 96 96 96 98 99 99 101 104 107 111 114 115 116 117 118 121 122 119
148 147 146 145 144 143 143 143 141 139 138 136 134 133 132 131 130 128 128 127 126 126 125 125 124 123 121 120 118 116 114 113 112 110 109 107 105 103 102 100 99 98 97 96 94 92 91 90 90 91 92 93 94 95 96 97 99 100 101 102 104 105 107 107 106 103 100 98 97 97 98 100 102 103 104 106 108 112 114 115 117 119 121 120 117
149 148 147 145 145 144 144 144 142 140 138 137 136 134 133 132 131 130 129 128 127 127 126 126 125 123 122 121 119 117 116 114 112 111 109 107 105 104 102 101 99 97 96 95 94 92 90 90 90 90 91 93 93 94 95 96 98 100 101 102 104 106 107 108 107 105 103 101 100 98 98 99 101 104 105 106 107 110 114 116 116 117 118 118 115
150 149 147 146 146 146 145 144 143 141 140 138 137 135 134 133 132 131 129 128 128 128 127 127 126 124 123 122 120 118 117 115 113 112 110 109 107 105 103 101 99 97 95 94 92 91 90 89 89 90 91 92 92 93 93 94 96 98 99 101 105 107 108 109 109 107 105 104 103 102 100 99 100 103 105 106 108 110 112 114 116 117 119 119 117
151 150 148 148 147 147 146 145 144 142 141 140 139 137 135 134 132 131 130 129 129 128 128 128 127 125 124 122 121 119 117 116 114 113 112 110 108 105 103 101 98 96 94 93 91 91 90 89 88 88 89 90 90 91 91 91 93 95 97 100 104 108 108 110 110 108 107 105 105 105 103 103 102 102 104 106 109 111 113 114 116 118 120 121 120
153 151 149 149 148 148 147 147 145 143 143 142 141 138 136 135 134 133 131 130 129 128 128 128 127 126 125 123 121 119 118 117 116 115 113 111 108 106 103 100 98 96 94 92 91 90 90 89 88 88 88 88 88 88 89 90 91 93 95 98 102 107 110 110 109 107 107 106 106 107 107 107 107 105 104 105 107 110 113 115 116 118 120 121 120
154 153 151 151 150 150 149 148 146 145 144 144 142 140 138 136 136 134 132 131 129 127 127 127 128 127 126 124 122 121 120 119 117 116 114 112 109 106 103 100 98 96 94 92 91 90 90 89 89 88 88 88 87 87 89 90 89 90 92 95 99 103 108 110 109 108 107 107 106 106 108 109 109 107 106 105 105 107 111 113 115 116 118 120 121
156 155 154 153 151 150 151 149 147 147 146 145 143 141 139 138 137 136 133 131 129 128 128 128 128 127 126 125 123 122 121 119 118 116 114 112 109 106 103 101 99 96 94 92 91 90 89 89 88 88 88 88 88 87 87 90 90 89 90 92 96 99 103 108 110 111 110 109 108 106 107 109 111 110 108 106 106 106 108 110 113 115 118 120 121
159 158 157 155 153 151 153 151 149 148 147 146 144 142 140 139 139 137 135 133 131 129 129 129 129 128 127 125 124 122 120 119 118 117 115 113 109 106 103 100 98 96 95 92 91 89 88 87 88 88 88 88 88 87 86 88 91 90 90 91 92 95 98 103 107 109 111 112 111 109 108 109 111 111 110 108 106 105 106 108 111 115 118 121 122
162 161 160 157 154 153 155 153 151 150 149 146 144 143 141 140 139 137 135 134 132 131 130 130 129 128 127 126 124 122 120 119 118 117 116 113 109 106 103 101 98 96 95 93 91 90 88 87 87 87 87 88 88 88 87 88 91 91 91 91 91 92 95 99 101 104 107 110 111 110 109 109 110 111 110 108 106 104 104 106 108 112 116 120 123
166 165 163 160 156 156 157 155 153 152 150 148 145 143 142 141 140 139 136 134 133 132 131 130 130 129 128 126 123 122 121 120 119 117 116 114 111 108 105 102 99 97 95 93 92 90 88 87 87 87 86 87 88 89 88 88 90 91 91 91 91 91 94 97 98 100 104 108 110 111 109 108 109 109 108 106 103 102 101 102 103 105 109 114 119
168 167 166 164 160 159 159 157 156 155 152 150 147 145 144 143 141 140 137 135 135 133 132 131 130 129 128 126 125 123 121 120 118 118 117 115 113 110 107 104 101 99 96 94 93 91 88 87 85 85 86 86 88 89 88 88 89 90 90 91 92 93 95 97 98 100 103 107 111 112 111 109 108 108 106 105 103 101 101 100 100 101 103 108 112
171 170 168 166 163 161 161 160 159 157 155 152 150 148 147 144 142 140 138 137 136 135 134 132 131 130 129 127 126 124 122 121 118 118 118 117 115 112 109 105 101 98 97 95 93 92 89 87 86 84 85 87 89 89 87 87 89 89 89 89 90 93 96 97 99 99 102 107 113 114 114 112 110 109 108 106 105 103 101 100 99 98 99 102 105
173 171 170 169 167 164 163 163 162 160 158 155 153 152 150 147 144 141 139 139 138 137 135 134 133 131 131 129 126 125 124 123 120 119 119 118 116 114 110 105 101 98 97 96 93 92 90 88 86 86 85 88 90 91 89 87 87 87 88 86 88 93 95 96 98 98 101 107 114 117 116 115 114 112 110 108 108 106 102 99 98 97 96 98 99
174 173 172 172 170 167 166 165 165 164 161 159 157 155 153 150 147 144 142 141 140 139 138 136 135 134 133 130 128 127 127 126 123 122 120 119 117 115 111 106 102 100 98 97 94 92 90 88 86 86 85 87 91 92 91 90 87 86 88 89 91 95 94 96 98 97 100 106 113 119 119 118 116 114 113 112 111 109 104 99 98 97 96 96 96
176 175 175 174 173 170 168 167 167 166 164 162 160 159 156 153 150 148 146 145 143 143 142 140 139 137 136 133 131 129 128 127 124 122 120 119 118 116 114 110 106 103 100 97 94 91 89 88 87 86 85 85 90 90 90 92 92 88 88 91 95 98 97 99 100 97 98 103 111 118 120 119 117 116 114 114 113 111 107 102 98 96 96 96 97
177 178 177 176 176 173 171 170 169 169 167 166 164 162 159 156 154 152 151 150 148 148 146 145 143 141 139 136 133 131 129 127 125 123 120 119 117 117 115 111 108 104 101 96 92 91 88 87 86 86 86 85 88 89 87 91 95 92 90 93 95 98 101 105 103 100 99 101 107 115 121 121 119 118 115 114 114 112 109 105 101 98 96 96 98
179 179 178 178 177 175 173 172 172 171 170 169 167 165 162 159 158 157 156 155 153 151 150 149 147 145 143 140 136 133 131 128 127 125 121 120 117 117 115 110 108 104 101 97 94 91 88 85 83 85 87 87 91 91 86 88 94 94 93 94 96 99 104 110 107 104 103 101 105 111 119 122 121 120 118 115 114 112 110 108 105 102 99 98 99
181 180 180 179 179 177 176 175 175 174 173 171 170 167 165 163 162 161 159 159 157 155 155 153 151 149 146 143 140 136 134 131 128 126 124 122 118 116 115 112 108 104 101 97 95 91 87 85 84 86 87 88 96 97 90 89 90 91 95 97 100 102 106 112 110 106 106 104 105 109 117 122 123 121 120 118 116 114 111 110 107 105 102 100 100
183 182 182 181 180 179 178 178 177 177 176 174 173 170 168 167 166 165 164 163 161 160 158 156 154 152 149 147 145 141 138 136 132 129 126 121 118 115 114 112 105 102 100 96 95 92 91 89 88 90 87 89 97 97 92 90 87 88 93 97 101 103 107 113 111 108 106 106 107 110 116 122 124 123 122 120 118 116 114 112 110 108 105 102 101
185 184 184 184 182 180 179 180 180 179 179 177 176 173 171 170 170 169 168 166 164 164 161 158 157 154 152 151 149 146 144 141 137 131 126 119 118 114 110 108 103 102 99 94 94 93 93 93 92 94 89 89 95 95 92 90 89 87 89 93 98 101 109 117 114 109 106 106 109 110 116 122 124 125 124 123 121 121 118 117 115 111 109 106 104
186 186 186 185 184 182 181 181 182 181 181 179 178 176 174 173 173 172 171 169 166 165 163 161 160 158 156 155 152 150 147 144 139 133 127 120 117 112 106 105 104 101 97 94 93 91 93 94 94 96 92 91 93 94 92 90 90 88 83 87 97 100 112 122 118 112 107 107 110 110 113 119 122 124 124 125 124 124 123 121 119 114 111 109 108
187 187 187 187 186 184 182 183 183 183 182 181 180 178 177 176 176 175 173 172 168 167 166 163 163 161 159 159 156 152 147 144 140 135 128 120 116 112 105 103 102 101 97 95 94 92 93 93 95 96 95 94 91 89 87 87 90 86 77 83 93 100 116 125 121 115 111 109 110 111 113 116 118 121 123 126 126 125 124 123 121 117 113 110 110
187 188 189 189 188 185 184 185 185 184 184 183 182 180 180 179 179 178 176 174 172 171 170 166 165 162 160 161 158 152 148 145 141 136 129 122 117 111 104 101 101 100 99 97 95 94 95 92 93 95 95 94 89 83 82 84 88 82 73 80 89 103 120 126 122 119 116 114 114 114 116 117 118 120 123 127 131 131 129 129 126 121 117 114 113
188 188 189 190 189 186 185 186 186 186 185 185 184 182 182 182 182 180 178 177 175 174 172 169 168 164 161 162 160 157 153 150 145 137 131 124 116 109 105 100 99 99 98 98 95 93 94 91 93 95 93 90 85 79 78 83 86 77 70 79 91 109 123 126 122 120 118 119 119 119 120 120 120 121 122 126 132 137 136 135 133 127 120 117 116
188 188 190 190 190 188 187 187 187 187 187 187 186 185 184 184 184 182 180 179 177 176 174 171 172 168 163 162 163 161 158 154 151 142 133 125 117 110 107 103 100 99 96 96 95 93 93 91 91 93 90 88 83 79 81 85 84 74 68 81 95 111 123 124 120 116 115 119 121 122 122 121 122 122 122 125 129 134 136 136 134 130 124 121 119
189 188 189 190 190 189 189 188 188 189 188 188 188 186 185 185 186 184 182 181 180 179 177 174 174 172 168 166 165 164 161 157 154 148 137 129 121 113 107 104 101 99 96 95 95 95 95 93 90 89 90 89 86 83 82 81 81 74 73 84 97 107 115 115 114 111 111 117 119 119 120 120 122 122 122 124 128 131 134 137 135 129 126 124 123
192 190 190 191 191 190 190 190 190 190 190 189 189 188 187 186 187 187 185 183 182 181 179 177 176 174 173 171 168 166 164 160 156 151 144 137 128 119 110 105 103 99 96 95 94 95 95 94 90 89 90 90 88 86 81 77 76 75 81 92 99 104 107 106 109 110 110 114 116 116 116 117 119 120 123 124 127 130 133 139 142 139 134 131 131
194 192 192 192 192 191 191 192 191 190 190 190 190 190 189 188 187 188 187 186 185 183 181 179 178 176 175 174 171 168 168 165 160 154 149 143 134 125 116 108 106 101 97 98 96 95 95 94 92 89 88 88 88 85 79 76 76 79 91 100 101 102 104 104 105 107 110 113 115 116 114 113 112 115 121 125 127 129 133 139 145 149 149 149 150
195 194 193 193 193 192 191 192 192 190 190 190 190 190 189 189 188 189 189 188 187 185 184 182 180 179 178 175 173 171 169 168 164 159 155 150 140 131 122 113 109 105 102 102 102 100 99 98 95 91 87 87 88 85 78 78 84 88 95 101 100 99 100 100 102 105 108 110 111 112 110 106 105 108 114 120 127 129 131 139 145 153 165 178 190
196 196 195 195 194 192 192 193 193 191 190 190 190 190 190 189 189 190 191 190 189 188 187 185 184 183 181 178 176 173 170 168 167 164 160 156 149 139 128 118 112 109 105 105 106 105 104 102 97 92 87 89 90 84 80 83 89 91 93 97 96 96 97 97 102 105 106 108 107 107 107 104 101 104 107 112 119 121 121 130 140 148 163 191 222
197 197 196 196 196 195 194 194 193 192 191 191 191 191 192 191 190 191 192 192 191 190 189 188 187 186 185 183 179 176 173 170 169 167 165 161 156 148 136 123 115 112 108 107 109 107 106 104 100 94 87 90 92 85 84 86 88 92 94 93 92 91 94 97 101 103 105 107 106 104 105 103 100 99 100 106 111 114 117 126 138 144 146 168 256
198 197 196 196 197 197 196 195 195 194 193 193 193 193 193 193 192 192 192 192 193 192 190 189 188 187 187 186 183 180 176 174 172 170 170 169 164 157 146 132 122 116 112 110 108 107 109 107 102 97 90 90 92 87 86 85 86 94 93 91 93 91 91 97 103 105 106 109 108 107 108 106 104 98 93 96 99 103 111 116 128 132 102 38 13
198 197 197 196 197 198 197 197 196 195 195 194 194 194 194 194 194 193 193 193 194 193 192 191 189 188 188 188 187 184 180 178 177 174 174 175 173 167 158 146 134 124 118 115 112 111 113 111 104 100 96 94 92 88 87 84 87 95 93 89 93 92 92 103 108 105 103 109 112 112 115 113 109 99 89 89 89 91 97 90 81 75 49 23 14
198 198 198 197 197 198 197 197 196 195 195 194 194 194 194 193 193 192 192 192 192 193 193 192 190 189 190 191 190 188 185 182 182 181 179 180 178 175 170 162 149 135 125 121 119 117 118 117 112 106 99 97 94 88 87 86 88 97 96 90 88 85 91 106 107 100 98 102 108 109 115 120 117 102 84 77 75 79 84 74 56 42 31 17 11
199 199 199 198 197 197 197 197 196 195 195 194 194 195 195 194 193 192 191 191 192 192 193 192 191 191 191 192 192 191 189 187 187 186 185 184 183 181 178 173 163 151 138 127 124 126 127 125 121 116 105 101 97 89 88 86 86 96 97 92 87 82 89 103 103 99 95 91 101 114 118 120 119 106 88 68 62 67 67 60 45 28 20 17 19
201 200 200 199 198 197 197 196 196 196 196 195 195 196 196 196 196 195 194 194 194 194 194 194 194 193 192 193 194 194 193 191 191 191 190 190 188 188 187 184 178 168 155 142 137 137 138 133 130 126 116 110 105 94 90 88 87 91 91 89 87 82 89 104 104 99 97 89 97 115 118 112 109 96 96 72 46 49 35 36 35 28 21 24 35
202 200 200 199 198 197 197 197 197 197 197 197 197 197 197 198 198 197 197 197 197 196 196 196 195 194 194 196 197 197 196 195 195 195 195 195 195 195 195 194 191 185 177 165 158 154 150 149 146 140 131 127 119 102 95 95 93 90 86 87 85 80 89 104 107 101 96 93 95 95 86 78 80 88 102 13 3 351 351 352 1 23 17 14 27
202 201 200 199 198 198 197 197 197 197 197 198 198 198 199 199 199 199 198 199 199 198 197 197 197 197 197 199 200 201 201 200 200 200 200 200 200 201 203 204 204 200 195 189 185 179 173 168 164 159 153 147 138 118 108 107 101 90 84 89 87 79 83 95 103 100 90 90 93 88 85 76 64 83 153 25 23 329 309 304 298 341 349 335 348
203 202 200 199 198 198 198 197 197 198 198 198 199 200 200 200 201 200 200 200 200 199 199 199 198 199 200 201 203 204 204 205 206 206 206 205 206 207 209 212 213 212 209 206 204 202 196 189 181 177 176 169 160 150 137 125 113 95 80 91 101 89 83 88 98 99 86 82 82 81 93 88 68 82 130 127 64 343 287 286 287 302 309 301 309
202 200 199 199 199 199 199 198 198 199 199 200 201 201 201 201 202 202 202 202 201 200 200 200 199 200 201 202 204 206 208 210 211 211 210 209 210 211 213 216 218 219 219 217 215 214 210 204 199 195 195 190 182 178 177 163 145 125 85 92 119 111 96 93 98 99 84 74 71 66 72 69 39 45 97 143 124 340 301 298 302 304 300 297 301